OBJECT E

Satellite information

Favourite Embed

Satellite Type and Status

UNKNOWNIN ORBIT

Key statistics

Satellite OBJECT E at a glance.

Uptime

1408

Days in orbit

Revolutions

≈ 14.3

Per day

Orbit

SSO

Sun Synchronous Orbit

Inclination

98.7

Latest

Satellite identification and parameters

Extended collection of information and parameters for OBJECT E.

Object identification

Identified? True

Debris? False

Object name: OBJECT E

International designator: 2021-062E

Object number (NORAD): 49047

Object ID (CCSDS): 49047

Country: PEOPLES REPUBLIC OF CHINA (PRC)

Current information (Y/N): Y

RCS size: SMALL

Orbital parameters

Period: 100.859 minutes

Inclination: 98.6844 deg

SMA: 7177.456 km

Apoapsis: 803.206 km

Periapsis: 795.436 km

RAAN: 149.0555 deg

Eccentricy: 0.0005413

Argument of periapsis: 147.7663 deg

Mean anomaly: 212.3849 deg

Mean motion: 14.27732793 rev/day

Mean motion (dot): 0.00000112 rev/day2

B* drag term: 0.000063318 1/REarth

Two-line elements (TLE)

Creation date: May 11, 2025, 10:46 p.m.

Reference frame: TEME

Reference center: EARTH

Epoch: May 11, 2025, 9:11 p.m. UTC

TLE line 0: 0 OBJECT E

TLE line 1: 1 49047U 21062E 25131.88275044 .00000112 00000-0 63318-4 0 9994

TLE line 2: 2 49047 98.6844 149.0555 0005413 147.7663 212.3849 14.27732793198531

Live tracking on map

Real-time ground track for satellite OBJECT E.

In-orbit conjunctions

There are no conjunctions computed for OBJECT E, at the moment. Check back to stay up to date, as we update our databases every day.

Go to all conjunctions

Associated space launch

The newer FY-3 series is an improved generation of polar-orbiting heliosynchronous weather satellites.

OBJECT E was lifted into orbit during the mission ‘Long March 4C | Fengyun-3E’, on board a Long March 4C space rocket.

The launch took place on July 4, 2021, 11:28 p.m. from Launch Area 4 (SLS-2 / 603).

For more information about the launch, click the button.

Launch to space Long March 4C | Fengyun-3E
Long March 4C | Fengyun-3E

Agency: N/A

Status: Launch Successful

Launch date: July 4, 2021, 11:28 p.m. UTC

Rocket: Long March 4C

Launch pad: Launch Area 4 (SLS-2 / 603)

Location: Jiuquan Satellite Launch Center, People's Republic of China

...

Latest news about this satellite

News about space launch
China lofts Fengyun 3E polar weather satellite

China has successfully launched a new polar weather satellite, Fengyun 3E.  Liftoff of the mission took place at 23:28 UTC on 4 July 2021 from launch site SLS-2 at the Jiuquan Satellite Launch Center using a Chang Zheng 4C rocket.

News about space launch
China launches Fengyun weather satellite into polar orbit

A new Chinese Fengyun weather satellite launched Sunday and flew into an early morning polar orbit to feed data into global computer models, adding inputs that international weather officials said will improve medium and long-range forecasts.


Newsletter sign-up

Weekly statistics, charts and insights to help you stay on top of the space industry.